Location: Zagreb
(45.8000°N, 16.0000°E)
Time: 20:54:29
(UTC+01:00)

CUTE-I - Pass Details

Date: 04 November 2020
Orbit: 811 x 824 km, 98.7° (Epoch: 01 December)

Event Time Altitude Azimuth Distance (km) Brightness Sun altitude
Rises 18:10:00 0° 191° (SSW) 3,318 ? -16.4°
Reaches altitude 10° 18:12:33 10° 201° (SSW) 2,392 ? -16.8°
Maximum altitude 18:17:16 32° 264° (W) 1,365 ? -17.7°
Drops below altitude 10° 18:22:01 10° 327° (NNW) 2,412 ? -18.5°
Sets 18:24:37 0° 338° (NNW) 3,350 ? -18.9°
